This is the latest recevied weather packets stored in our database for station/object F5LKO-13. If no packets are shown the sender has not sent any weather packets the latest 10 day(s).
| Time | Temp. | Humidity | Pressure | Rain* | Wind** | Luminosity | Snow |
|---|---|---|---|---|---|---|---|
| 1778021473 | 11.11° C | 99% | 1014.9 hPa | 1.52 mm | - | 0 W/m² | - |
| 1778021167 | 11.11° C | 99% | 1014.9 hPa | 1.52 mm | - | 0 W/m² | - |
| 1778020861 | 11.11° C | 99% | 1014.8 hPa | 1.52 mm | - | 0 W/m² | - |
| 1778020555 | 11.11° C | 99% | 1014.8 hPa | 1.52 mm | - | 0 W/m² | - |
| 1778020249 | 11.11° C | 99% | 1014.8 hPa | 1.52 mm | - | 0 W/m² | - |
| 1778019952 | 11.11° C | 99% | 1014.8 hPa | 1.52 mm | - | 0 W/m² | - |
| 1778019637 | 11.11° C | 99% | 1014.8 hPa | 1.52 mm | - | 0 W/m² | - |
| 1778019331 | 11.11° C | 99% | 1014.9 hPa | 1.02 mm | - | 0 W/m² | - |
| 1778019025 | 11.11° C | 99% | 1014.9 hPa | 1.02 mm | - | 0 W/m² | - |
| 1778018719 | 11.67° C | 99% | 1014.9 hPa | 1.02 mm | - | 0 W/m² | - |
| 1778018413 | 11.67° C | 99% | 1015 hPa | 0 mm | - | 0 W/m² | - |
| 1778018117 | 11.11° C | 99% | 1015 hPa | 2.79 mm | - | 0 W/m² | - |
| 1778017802 | 11.67° C | 99% | 1015 hPa | 2.79 mm | - | 0 W/m² | - |
| 1778017496 | 11.67° C | 99% | 1015.1 hPa | 2.79 mm | - | 0 W/m² | - |
| 1778017191 | 11.67° C | 99% | 1015 hPa | 2.79 mm | - | 0 W/m² | - |
| 1778016885 | 11.67° C | 99% | 1015.1 hPa | 2.79 mm | - | 0 W/m² | - |
| 1778016579 | 11.67° C | 99% | 1015.2 hPa | 2.79 mm | - | 0 W/m² | - |
| 1778016282 | 11.67° C | 99% | 1015.2 hPa | 2.79 mm | - | 0 W/m² | - |
| 1778015967 | 11.67° C | 99% | 1015.2 hPa | 2.79 mm | - | 0 W/m² | - |
| 1778015661 | 11.67° C | 99% | 1015.1 hPa | 2.79 mm | - | 0 W/m² | - |
| 1778015355 | 11.67° C | 99% | 1015.3 hPa | 1.52 mm | - | 0 W/m² | - |
| 1778015049 | 11.67° C | 99% | 1015.2 hPa | 0 mm | - | 0 W/m² | - |
| 1778014744 | 11.67° C | 99% | 1015.3 hPa | 0 mm | - | 0 W/m² | - |
| 1778014448 | 12.22° C | 99% | 1015.2 hPa | 2.29 mm | - | 0 W/m² | - |
| 1778014133 | 12.22° C | 99% | 1015.2 hPa | 2.29 mm | - | 0 W/m² | - |
* Rain latest hour (hover to see other rain measurements)
** Current wind speed in m/s (hover to see current wind gust speed)